Tillbaka till svenska Fidonet
English   Information   Debug  
FILM   0/18
FNEWS_PUBLISH   4926
FN_SYSOP   42201
FN_SYSOP_OLD1   71952
FTP_FIDO   0/2
FTSC_PUBLIC   0/13973
FUNNY   0/4886
GENEALOGY.EUR   0/71
GET_INFO   105
GOLDED   0/408
HAM   1447/16660
HOLYSMOKE   0/6791
HOT_SITES   0/1
HTMLEDIT   0/71
HUB203   466
HUB_100   264
HUB_400   39
HUMOR   0/29
IC   0/2851
INTERNET   0/424
INTERUSER   0/3
IP_CONNECT   719
JAMNNTPD   0/233
JAMTLAND   0/47
KATTY_KORNER   0/41
LAN   0/16
LINUX-USER   0/19
LINUXHELP   0/1155
LINUX   0/22300
LINUX_BBS   0/957
mail   18.68
mail_fore_ok   249
MENSA   0/341
MODERATOR   0/102
MONTE   0/992
MOSCOW_OKLAHOMA   0/1245
MUFFIN   0/783
MUSIC   0/321
N203_STAT   938
N203_SYSCHAT   313
NET203   321
NET204   69
NET_DEV   0/10
NORD.ADMIN   0/101
NORD.CHAT   0/2572
NORD.FIDONET   189
NORD.HARDWARE   0/28
NORD.KULTUR   0/114
NORD.PROG   0/32
NORD.SOFTWARE   0/88
NORD.TEKNIK   0/58
NORD   0/453
OCCULT_CHAT   0/93
OS2BBS   0/787
OS2DOSBBS   0/580
OS2HW   0/42
OS2INET   0/37
OS2LAN   0/134
OS2PROG   0/36
OS2REXX   0/113
OS2USER-L   207
OS2   0/4830
OSDEBATE   2738/18996
PASCAL   0/490
PERL   0/457
PHP   0/45
POINTS   0/405
POLITICS   0/29554
POL_INC   0/14731
PSION   103
R20_ADMIN   1133
R20_AMATORRADIO   0/2
R20_BEST_OF_FIDONET   16
R20_CHAT   0/896
R20_DEPP   0/3
R20_DEV   400
R20_ECHO2   1831
R20_ECHOPRES   0/35
R20_ESTAT   0/719
R20_FIDONETPROG...
...RAM.MYPOINT
  0/2
R20_FIDONETPROGRAM   0/22
R20_FIDONET   0/248
R20_FILEFIND   0/24
R20_FILEFOUND   0/22
R20_HIFI   0/3
R20_INFO2   3724
R20_INTERNET   0/12940
R20_INTRESSE   0/60
R20_INTR_KOM   0/99
R20_KANDIDAT.CHAT   42
R20_KANDIDAT   28
R20_KOM_DEV   112
R20_KONTROLL   0/13360
R20_KORSET   0/18
R20_LOKALTRAFIK   0/24
R20_MODERATOR   0/1852
R20_NC   76
R20_NET200   245
R20_NETWORK.OTH...
...ERNETS
  0/13
R20_OPERATIVSYS...
...TEM.LINUX
  0/44
R20_PROGRAMVAROR   0/1
R20_REC2NEC   534
R20_SFOSM   0/341
R20_SF   0/108
R20_SPRAK.ENGLISH   0/1
R20_SQUISH   107
R20_TEST   2
R20_WORST_OF_FIDONET   20
RAR   0/9
RA_MULTI   106
RA_UTIL   0/162
REGCON.EUR   0/2068
REGCON   0/13
SCIENCE   0/1206
SF   0/239
SHAREWARE_SUPPORT   0/5146
SHAREWRE   0/14
SIMPSONS   0/169
STATS_OLD1   0/2539.065
STATS_OLD2   0/2530
STATS_OLD3   0/2395.095
STATS_OLD4   0/1692.25
SURVIVOR   0/495
SYSOPS_CORNER   0/3
SYSOP   0/84
TAGLINES   0/112
TEAMOS2   0/4530
TECH   0/2617
TEST.444   0/105
TRAPDOOR   0/19
TREK   0/755
TUB   0/290
UFO   0/40
UNIX   0/1316
USA_EURLINK   0/102
USR_MODEMS   0/1
VATICAN   0/2740
VIETNAM_VETS   0/14
VIRUS   0/378
VIRUS_INFO   0/201
VISUAL_BASIC   0/473
WHITEHOUSE   0/5187
WIN2000   0/101
WIN32   0/30
WIN95   0/4291
WIN95_OLD1   0/70272
WINDOWS   0/1517
WWB_SYSOP   0/419
WWB_TECH   0/810
ZCC-PUBLIC   0/1
ZEC   4

 
4DOS   0/134
ABORTION   0/7
ALASKA_CHAT   0/506
ALLFIX_FILE   0/1313
ALLFIX_FILE_OLD1   0/7997
ALT_DOS   0/152
AMATEUR_RADIO   0/1039
AMIGASALE   0/14
AMIGA   0/331
AMIGA_INT   0/1
AMIGA_PROG   0/20
AMIGA_SYSOP   0/26
ANIME   0/15
ARGUS   0/924
ASCII_ART   0/340
ASIAN_LINK   0/651
ASTRONOMY   0/417
AUDIO   0/92
AUTOMOBILE_RACING   0/105
BABYLON5   0/17862
BAG   135
BATPOWER   0/361
BBBS.ENGLISH   0/382
BBSLAW   0/109
BBS_ADS   0/5290
BBS_INTERNET   0/507
BIBLE   0/3563
BINKD   0/1119
BINKLEY   0/215
BLUEWAVE   0/2173
CABLE_MODEMS   0/25
CBM   0/46
CDRECORD   0/66
CDROM   0/20
CLASSIC_COMPUTER   0/378
COMICS   0/15
CONSPRCY   0/899
COOKING   41444
COOKING_OLD1   0/24719
COOKING_OLD2   0/40862
COOKING_OLD3   0/37489
COOKING_OLD4   0/35496
COOKING_OLD5   9370
C_ECHO   0/189
C_PLUSPLUS   0/31
DIRTY_DOZEN   0/201
DOORGAMES   0/2285
DOS_INTERNET   0/196
duplikat   6102
ECHOLIST   0/18295
EC_SUPPORT   0/318
ELECTRONICS   0/359
ELEKTRONIK.GER   1534
ENET.LINGUISTIC   0/13
ENET.POLITICS   0/4
ENET.SOFT   0/11701
ENET.SYSOP   34296
ENET.TALKS   0/32
ENGLISH_TUTOR   0/2000
EVOLUTION   0/1335
FDECHO   0/217
FDN_ANNOUNCE   0/7068
FIDONEWS   25062
FIDONEWS_OLD1   0/49742
FIDONEWS_OLD2   0/35949
FIDONEWS_OLD3   0/30874
FIDONEWS_OLD4   0/37224
FIDO_SYSOP   12922
FIDO_UTIL   0/180
FILEFIND   0/209
FILEGATE   0/212
Möte HAM, 16660 texter
 lista första sista föregående nästa
Text 2759, 745 rader
Skriven 2009-01-29 22:00:22 av Amsat List (1:323/120.0)
Ärende: [keps]  orb09029.amsa
=============================
[keps]  orb09029.amsa

Return-Path: <keps-bounces@amsat.org>
X-Rcpt: craig.healy@chowda.com
X-UIDL: 1233283656.19295

SB KEPS @ AMSAT  $ORB09029.O
Orbital Elements  09029.OSCAR

HR AMSAT ORBITAL ELEMENTS FOR OSCAR SATELLITES
FROM WA5QGD FORT WORTH,TX January 29, 2009
Send Subscribe/unsubscribe to KEPS at 
http://www.amsat.org/mailman/listinfo/keps
BID: ORB09029.O
TO ALL RADIO AMATEURS BT

Satellite: AO-07
Catalog number: 07530
Epoch time:      09028.66698268
Element set:    0390
Inclination:      101.4421 deg
RA of node:       058.3935 deg
Eccentricity:    0.0011828
Arg of perigee:   181.4389 deg
Mean anomaly:     178.6645 deg
Mean motion:   12.53575148 rev/day
Decay rate:       -2.7e-07 rev/day^2
Epoch rev:           56523
Checksum:              324

Satellite: AO-10
Catalog number: 14129
Epoch time:      09027.43491243
Element set:     614
Inclination:      026.0122 deg
RA of node:       174.2966 deg
Eccentricity:    0.5967617
Arg of perigee:   193.2634 deg
Mean anomaly:     139.0146 deg
Mean motion:   02.05870410 rev/day
Decay rate:      -2.55e-06 rev/day^2
Epoch rev:           19272
Checksum:              289

Satellite: UO-11
Catalog number: 14781
Epoch time:      09028.77791147
Element set:    0874
Inclination:      098.1278 deg
RA of node:       071.8364 deg
Eccentricity:    0.0010079
Arg of perigee:   069.3974 deg
Mean anomaly:     290.8272 deg
Mean motion:   14.79691545 rev/day
Decay rate:       -4.0e-08 rev/day^2
Epoch rev:           33721
Checksum:              337

Satellite: RS-15
Catalog number: 23439
Epoch time:      09028.73401519
Element set:    0188
Inclination:      064.8129 deg
RA of node:       130.3227 deg
Eccentricity:    0.0145971
Arg of perigee:   078.6985 deg
Mean anomaly:     283.0296 deg
Mean motion:   11.27553419 rev/day
Decay rate:       -3.9e-07 rev/day^2
Epoch rev:           58039
Checksum:              328

Satellite: FO-29
Catalog number: 24278
Epoch time:      09028.82457376
Element set:     959
Inclination:      098.5761 deg
RA of node:       281.4366 deg
Eccentricity:    0.0350749
Arg of perigee:   351.5285 deg
Mean anomaly:     008.0028 deg
Mean motion:   13.52942156 rev/day
Decay rate:       -8.0e-08 rev/day^2
Epoch rev:           61490
Checksum:              338

Satellite: SO-33
Catalog number: 25509
Epoch time:      09028.68085471
Element set:    0380
Inclination:      031.4327 deg
RA of node:       121.3354 deg
Eccentricity:    0.0354856
Arg of perigee:   198.7914 deg
Mean anomaly:     159.9310 deg
Mean motion:   14.28240494 rev/day
Decay rate:       3.32e-06 rev/day^2
Epoch rev:           53587
Checksum:              317

Satellite: AO-40
Catalog number: 26609
Epoch time:      09027.90100829
Element set:     184
Inclination:      008.5899 deg
RA of node:       035.8159 deg
Eccentricity:    0.7945181
Arg of perigee:   169.8633 deg
Mean anomaly:     231.5825 deg
Mean motion:   01.25585610 rev/day
Decay rate:       -6.2e-07 rev/day^2
Epoch rev:            3786
Checksum:              331

Satellite: VO-52
Catalog number: 28650
Epoch time:      09028.85510808
Element set:    0142
Inclination:      097.7617 deg
RA of node:       094.9233 deg
Eccentricity:    0.0028193
Arg of perigee:   123.3697 deg
Mean anomaly:     237.0210 deg
Mean motion:   14.81546585 rev/day
Decay rate:      -1.25e-06 rev/day^2
Epoch rev:           20201
Checksum:              296

Satellite: PO-63
Catalog number: 29712
Epoch time:      09029.80321589
Element set:     193
Inclination:      097.8487 deg
RA of node:       089.4100 deg
Eccentricity:    0.0014464
Arg of perigee:   009.8951 deg
Mean anomaly:     350.2543 deg
Mean motion:   14.80425699 rev/day
Decay rate:       4.26e-06 rev/day^2
Epoch rev:           11099
Checksum:              327

/EX
SB KEPS @ AMSAT  $ORB09029.D
Orbital Elements  09029.MICROS

HR AMSAT ORBITAL ELEMENTS FOR THE MICROSATS
FROM WA5QGD FORT WORTH,TX January 29, 2009
Send Subscribe/unsubscribe to KEPS at 
http://www.amsat.org/mailman/listinfo/keps
BID: ORB09029.D
TO ALL RADIO AMATEURS BT

Satellite: AO-16
Catalog number: 20439
Epoch time:      09029.69894872
Element set:     522
Inclination:      098.2603 deg
RA of node:       004.5340 deg
Eccentricity:    0.0010262
Arg of perigee:   219.3828 deg
Mean anomaly:     140.6613 deg
Mean motion:   14.31814530 rev/day
Decay rate:       -2.0e-07 rev/day^2
Epoch rev:           99333
Checksum:              287

Satellite: LO-19
Catalog number: 20442
Epoch time:      09029.70880098
Element set:     446
Inclination:      098.2258 deg
RA of node:       012.3274 deg
Eccentricity:    0.0011338
Arg of perigee:   216.0150 deg
Mean anomaly:     144.0259 deg
Mean motion:   14.32051187 rev/day
Decay rate:      -1.13e-06 rev/day^2
Epoch rev:           99349
Checksum:              287

Satellite: AO-27
Catalog number: 22825
Epoch time:      09028.90315288
Element set:    0165
Inclination:      098.4193 deg
RA of node:       346.8473 deg
Eccentricity:    0.0007701
Arg of perigee:   319.1662 deg
Mean anomaly:     040.8951 deg
Mean motion:   14.29257366 rev/day
Decay rate:        3.0e-08 rev/day^2
Epoch rev:           80001
Checksum:              303

Satellite: IO-26
Catalog number: 22826
Epoch time:      09028.63783637
Element set:    0884
Inclination:      098.4101 deg
RA of node:       347.4001 deg
Eccentricity:    0.0008377
Arg of perigee:   316.8621 deg
Mean anomaly:     043.1903 deg
Mean motion:   14.29507841 rev/day
Decay rate:       -2.3e-07 rev/day^2
Epoch rev:           80007
Checksum:              297

